Zurück zum Katalog

SL-16 DEB

AktivLEO
NORAD 22618·DEBRIS·🇷🇺 Russia

Gestartet Mar 26, 1993 von Baikonur Cosmodrome

Loading…

Nächste Überflüge (nächste 24 Stunden)

TLE

AktuellSource: Space-Track

Epoche: Sep 14, 2026, 14:37 UTC

1 22618U 93016AC  26257.60940535  .00000162  00000-0  17005-3 0  9997
2 22618  70.9916 122.5767 0155014 172.4372 187.9127 13.83605456686854

Verfolge SL-16 DEB in Echtzeit mit AllMySat

Download on the App Store